Regional Weather Roundup
Issued by NWS

Home | Current Version | Previous Version | Text Only | Print | Product List | Glossary Off
Versions: 1 2 3 4 5 6 7 8 9 10 11 12 13 14 15 16 17 18 19 20 21 22 23 24 25 26 27 28 29 30 31 32 33 34 35 36 37 38 39 40 41 42 43 44 45 46 47 48 49 50

000
ASUS43 KOAX 241610
RWRNE

WEATHER ROUNDUP FOR NEBRASKA
NATIONAL WEATHER SERVICE OMAHA NE
1100 AM CDT THU APR 24 2014

NOTES: SATELLITE DATA IS BEING USED TO AUGMENT CLOUD COVER ABOVE
       12000 FEET.
       "FAIR" INDICATES FEW OR NO CLOUDS BELOW 12,000 FEET WITH NO
       SIGNIFICANT WEATHER AND/OR OBSTRUCTIONS TO VISIBILITY.

  * THESE STATIONS DO NOT REPORT WEATHER SUCH AS RAIN...SNOW OR FOG.

NEZ001>004-019>022-054>056-241700-
NEBRASKA PANHANDLE

CITY           SKY/WX    TMP DP  RH WIND       PRES   REMARKS
SCOTTSBLUFF    SUNNY     55  21  26 W16G24    29.95F
ALLIANCE       SUNNY     55  22  27 W18       29.91S
CHADRON        SUNNY     55  26  32 NW20G25   29.90S
KIMBALL        SUNNY     52  12  20 W20G28    29.96S
SIDNEY         SUNNY     56  18  22 NW20      29.97S
$$

NEZ057>060-069>072-079>082-241700-
SOUTHWEST NEBRASKA

CITY           SKY/WX    TMP DP  RH WIND       PRES   REMARKS
NORTH PLATTE   SUNNY     60  26  27 NW14G26   29.89R
IMPERIAL       SUNNY     60  20  21 NW23G29   29.93S
LEXINGTON      MOSUNNY   62  28  27 NW26G33   29.85S
MCCOOK         SUNNY     62  25  24 NW25G33   29.91R
OGALLALA       SUNNY     56  21  25 NW22G28   29.93S
$$

NEZ005>010-023>029-035>040-094-241700-
NORTH CENTRAL NEBRASKA

CITY           SKY/WX    TMP DP  RH WIND       PRES   REMARKS
VALENTINE      SUNNY     60  21  22 NW15      29.84F
AINSWORTH      SUNNY     61  25  24 NW18G24   29.83S
BROKEN BOW     SUNNY     62  23  22 N24G31    29.83R
O`NEILL        SUNNY     63  19  18 NW25G36   29.78F
ORD            SUNNY     61  30  31 N26G37    29.79S
THEDFORD       SUNNY     61  17  18 NW17G26   29.86S
$$

NEZ041-046>049-061>064-073>077-083>087-241700-
SOUTH CENTRAL NEBRASKA

CITY           SKY/WX    TMP DP  RH WIND       PRES   REMARKS
GRAND ISLAND   PTSUNNY   59  39  47 N23G33    29.79R
AURORA         CLOUDY    57  45  64 N24       29.78R
HASTINGS       CLOUDY    58  41  53 N23       29.80R
HEBRON         CLOUDY    56  43  61 N16       29.76R
HOLDREGE       PTSUNNY   58  36  43 N17G25    29.83S
KEARNEY *      CLOUDY    57  37  47 N18G24    29.82S
YORK           CLOUDY    54  46  76 NW16      29.77R
$$

NEZ011>018-030>034-042>045-241700-
NORTHEAST NEBRASKA

CITY           SKY/WX    TMP DP  RH WIND       PRES   REMARKS
NORFOLK        CLOUDY    55  43  63 NW23G32   29.73R
ALBION         PTSUNNY   58  40  51 N17G26    29.77S
BLAIR          CLOUDY    53  49  86 NW15G21   29.70S
COLUMBUS *     PTSUNNY   55  41  58 N16       29.75R
FREMONT        CLOUDY    55  48  78 NW15G24   29.73R
TEKAMAH        CLOUDY    54  49  83 NW18G28   29.71R
$$

NEZ050>053-065>068-078-088>093-241700-
SOUTHEAST NEBRASKA

CITY           SKY/WX    TMP DP  RH WIND       PRES   REMARKS
LINCOLN        CLOUDY    59  46  62 N23       29.72F
OMAHA EPPLEY   CLOUDY    55  50  83 NW18      29.69S
BEATRICE       CLOUDY    58  47  67 NW16      29.74R
FALLS CITY     CLOUDY    56  52  86 N10       29.68R
NEBRASKA CITY  CLOUDY    56  54  92 N17       29.69R
PLATTSMOUTH    CLOUDY    57  52  84 NW16      29.68S
$$

NEZ044-045-051>053-067-241700-
OMAHA AREA

CITY           SKY/WX    TMP DP  RH WIND       PRES   REMARKS
OMAHA EPPLEY   CLOUDY    55  50  83 NW18      29.69S
BLAIR          CLOUDY    53  49  86 NW15G21   29.70S
FREMONT        CLOUDY    55  48  78 NW15G24   29.73R
MILLARD        CLOUDY    55  48  79 NW12G21   29.69F
OFFUTT AFB     CLOUDY    56  55  98 NW15G24   29.68R
PLATTSMOUTH    CLOUDY    57  52  84 NW16      29.68S
WAHOO          CLOUDY    56  49  76 N23       29.71F
$$



USA.gov is the U.S. government's official web portal to all federal, state and local government web resources and services.